Date String (YYYY-MM-DD hh:mm:ss) UTC,Instrument flags,absolute air pressure of the measurement (hPa),sample flow rate (lpm),inlet stack bypass flow (lpm),air temperature of the measurement (°C),ambient temperature measured by the external sensor (°C),aerosol sample conditioner tube jacket temperature (°C),OPC LED temperature (°C),internal box temperature (°C),relative humidity of the measurement (%),span deviation,mass concentration of particles derived from Lorenz-Mie calculation of OPC scattering (μg/m³),mass concentration of particles derived from Lorenz-Mie calculation of OPC scattering (μg/m³),mass concentration of particles derived from Lorenz-Mie calculation of OPC scattering (μg/m³)
DateTimeUTC,F1_M11,P_M11,Q1_M11,Q2_M11,T1_M11,T2_M11,T3_M11,T4_M11,T5_M11,U1_M11,ZSPAN_M11,X2_M11,X0_M11,X1_M11
2023-09-06 11:00:00,SystemResetWarning,0834.1,5.00,000.00,028.6,027.3,000.0,036.9,030.2,24.0,0001.9,0018.81,0026.92,0017.91
2023-09-06 11:01:00,SystemResetWarning,0834.1,4.99,000.00,028.6,027.3,000.0,036.9,030.2,24.0,0002.0,0018.82,0026.92,0017.93
2023-09-06 11:02:00,SystemResetWarning,0834.1,4.99,000.00,028.6,027.3,000.0,037.0,030.2,24.0,0002.1,0018.81,0026.93,0017.92
2023-09-06 11:03:00,SystemResetWarning,0834.0,5.00,000.00,028.6,027.3,000.0,037.0,030.2,24.0,0001.8,0018.73,0026.96,0017.87
2023-09-06 11:04:00,SystemResetWarning,0834.0,5.00,000.00,028.7,027.3,000.0,037.0,030.3,23.9,0001.7,0018.64,0027.71,0017.75
2023-09-06 11:05:00,SystemResetWarning,0834.0,5.00,000.00,028.7,027.3,000.0,037.0,030.3,23.9,0001.6,0018.51,0027.86,0017.62
2023-09-06 11:06:00,SystemResetWarning,0834.1,5.00,000.00,028.7,027.4,000.0,037.0,030.3,23.9,0001.6,0018.42,0027.72,0017.52
2023-09-06 11:07:00,SystemResetWarning,0834.1,5.01,000.00,028.7,027.4,000.0,037.0,030.3,23.9,0001.6,0018.38,0027.59,0017.48
2023-09-06 11:08:00,SystemResetWarning,0834.1,5.01,000.00,028.7,027.4,000.0,037.0,030.3,23.9,0001.8,0018.39,0027.77,0017.44
2023-09-06 11:09:00,SystemResetWarning,0834.1,5.01,000.00,028.7,027.4,000.0,037.0,030.3,23.9,0001.9,0018.33,0027.68,0017.40
2023-09-06 11:10:00,SystemResetWarning,0833.9,5.00,000.00,028.7,027.4,000.0,037.0,030.3,23.9,0001.9,0018.32,0026.99,0017.37
2023-09-06 11:11:00,SystemResetWarning,0834.0,5.00,000.00,028.7,027.4,000.0,037.0,030.3,23.9,0001.9,0018.29,0026.72,0017.34
2023-09-06 11:12:00,SystemResetWarning,0834.1,5.01,000.00,028.8,027.4,000.0,037.0,030.4,23.9,0001.9,0018.19,0026.59,0017.26
2023-09-06 11:13:00,SystemResetWarning,0834.1,4.99,000.00,028.8,027.4,000.0,037.0,030.4,23.9,0001.8,0018.14,0026.44,0017.20
2023-09-06 11:14:00,SystemResetWarning,0834.1,4.98,000.00,028.8,027.5,000.0,037.1,030.4,23.9,0002.0,0018.13,0026.83,0017.18
2023-09-06 11:15:00,SystemResetWarning,0834.1,5.00,000.00,028.8,027.5,000.0,037.1,030.4,23.8,0002.1,0018.10,0026.02,0017.17
2023-09-06 11:16:00,SystemResetWarning,0834.1,5.00,000.00,028.8,027.5,000.0,037.1,030.4,23.9,0002.2,0018.02,0026.10,0017.11
2023-09-06 11:17:00,SystemResetWarning,0834.1,5.00,000.00,028.8,027.5,000.0,037.1,030.5,24.0,0002.2,0017.87,0026.02,0016.99
2023-09-06 11:18:00,SystemResetWarning,0834.1,5.00,000.00,028.8,027.5,000.0,037.1,030.5,24.0,0002.3,0017.80,0026.03,0016.91
2023-09-06 11:19:00,SystemResetWarning,0834.2,5.01,000.00,028.9,027.5,000.0,037.1,030.5,24.0,0002.2,0017.73,0025.85,0016.86
2023-09-06 11:20:00,SystemResetWarning,0834.2,5.01,000.00,028.9,027.6,000.0,037.1,030.5,23.9,0002.2,0017.61,0025.44,0016.76
2023-09-06 11:21:00,SystemResetWarning,0834.1,5.00,000.00,028.9,027.6,000.0,037.1,030.5,24.0,0002.2,0017.45,0025.26,0016.63
2023-09-06 11:22:00,SystemResetWarning,0834.2,5.00,000.00,028.9,027.6,000.0,037.1,030.5,23.9,0002.2,0017.39,0024.84,0016.55
2023-09-06 11:23:00,SystemResetWarning,0834.2,5.00,000.00,028.9,027.6,000.0,037.2,030.5,24.0,0002.3,0017.35,0024.87,0016.46
2023-09-06 11:24:00,SystemResetWarning,0834.2,4.99,000.00,028.9,027.6,000.0,037.2,030.5,24.2,0002.2,0017.27,0024.70,0016.37
2023-09-06 11:25:00,SystemResetWarning,0834.2,4.99,000.00,028.9,027.6,000.0,037.2,030.6,24.0,0002.3,0017.19,0024.38,0016.30
2023-09-06 11:26:00,SystemResetWarning,0834.2,5.01,000.00,028.9,027.6,000.0,037.2,030.6,23.8,0002.3,0017.13,0025.11,0016.25
2023-09-06 11:27:00,SystemResetWarning,0834.2,5.01,000.00,028.9,027.6,000.0,037.2,030.6,23.8,0002.3,0017.20,0025.27,0016.28
2023-09-06 11:28:00,SystemResetWarning,0834.3,5.00,000.00,029.0,027.6,000.0,037.2,030.6,23.9,0002.3,0017.28,0025.40,0016.33
2023-09-06 11:29:00,SystemResetWarning,0834.5,4.99,000.00,029.0,027.7,000.0,037.2,030.6,24.0,0002.3,0017.28,0025.34,0016.36
2023-09-06 11:30:00,SystemResetWarning,0834.6,5.00,000.00,029.0,027.7,000.0,037.2,030.6,24.0,0002.3,0017.24,0025.46,0016.34
2023-09-06 11:31:00,SystemResetWarning,0834.2,5.01,000.00,029.0,027.7,000.0,037.2,030.6,24.0,0002.3,0017.26,0025.57,0016.31
2023-09-06 11:32:00,SystemResetWarning,0834.2,5.01,000.00,029.0,027.7,000.0,037.3,030.6,24.1,0002.2,0017.28,0026.10,0016.29
2023-09-06 11:33:00,SystemResetWarning,0834.1,5.00,000.00,029.0,027.7,000.0,037.3,030.6,24.4,0002.2,0017.19,0026.13,0016.25
2023-09-06 11:34:00,SystemResetWarning,0834.2,4.99,000.00,029.0,027.7,000.0,037.3,030.7,24.7,0002.0,0017.11,0025.96,0016.22
2023-09-06 11:35:00,SystemResetWarning,0834.2,4.99,000.00,029.0,027.7,000.0,037.3,030.7,24.9,0001.9,0017.05,0025.89,0016.19
2023-09-06 11:36:00,SystemResetWarning,0834.4,5.00,000.00,029.0,027.7,000.0,037.3,030.7,24.9,0001.8,0017.05,0026.24,0016.16
2023-09-06 11:37:00,SystemResetWarning,0834.2,5.01,000.00,029.1,027.7,000.0,037.3,030.7,24.9,0001.8,0017.02,0025.45,0016.10
2023-09-06 11:38:00,SystemResetWarning,0834.1,5.01,000.00,029.1,027.7,000.0,037.3,030.7,24.4,0001.7,0016.91,0024.59,0016.04
2023-09-06 11:39:00,SystemResetWarning,0834.1,4.99,000.00,029.1,027.7,000.0,037.3,030.7,24.1,0001.6,0016.86,0025.35,0016.02
2023-09-06 11:40:00,SystemResetWarning,0834.2,4.99,000.00,029.1,027.7,000.0,037.3,030.8,24.0,0001.5,0016.85,0026.01,0015.99
2023-09-06 11:41:00,SystemResetWarning,0834.7,5.00,000.00,029.1,027.7,000.0,037.4,030.7,24.0,0001.5,0016.83,0026.10,0015.97
2023-09-06 11:42:00,SystemResetWarning,0834.3,5.01,000.00,029.1,027.7,000.0,037.4,030.7,24.0,0001.4,0016.79,0026.08,0015.97
2023-09-06 11:43:00,SystemResetWarning,0834.6,5.01,000.00,029.1,027.7,000.0,037.4,030.7,24.1,0001.4,0016.74,0025.41,0015.96
2023-09-06 11:44:00,SystemResetWarning,0834.3,5.01,000.00,029.1,027.7,000.0,037.4,030.7,24.2,0001.3,0016.81,0025.27,0015.99
2023-09-06 11:45:00,SystemResetWarning,0834.2,5.00,000.00,029.1,027.7,000.0,037.4,030.7,24.2,0001.5,0016.89,0025.36,0016.00
2023-09-06 11:46:00,SystemResetWarning,0834.5,5.00,000.00,029.1,027.7,000.0,037.4,030.8,24.2,0001.6,0016.91,0025.31,0016.00
2023-09-06 11:47:00,SystemResetWarning,0834.4,5.00,000.00,029.1,027.8,000.0,037.4,030.8,24.2,0001.6,0016.94,0024.85,0016.01
2023-09-06 11:48:00,SystemResetWarning,0834.4,4.99,000.00,029.1,027.8,000.0,037.4,030.8,24.1,0001.7,0016.96,0025.43,0016.03
2023-09-06 11:49:00,SystemResetWarning,0834.4,4.99,000.00,029.1,027.8,000.0,037.4,030.8,24.0,0001.7,0016.97,0025.67,0016.06
2023-09-06 11:50:00,SystemResetWarning,0834.5,5.00,000.00,029.1,027.8,000.0,037.4,030.8,24.0,0002.0,0016.95,0025.14,0016.06
2023-09-06 11:51:00,SystemResetWarning,0834.3,5.00,000.00,029.1,027.8,000.0,037.4,030.8,24.0,0002.0,0017.00,0024.46,0016.06
2023-09-06 11:52:00,SystemResetWarning,0834.4,5.00,000.00,029.2,027.8,000.0,037.4,030.8,24.0,0002.1,0017.09,0024.41,0016.10
2023-09-06 11:53:00,SystemResetWarning,0834.4,5.01,000.00,029.2,027.8,000.0,037.4,030.8,23.9,0002.2,0017.16,0024.31,0016.16
2023-09-06 11:54:00,SystemResetWarning,0834.4,5.00,000.00,029.2,027.8,000.0,037.4,030.8,23.9,0002.2,0017.22,0024.39,0016.22
2023-09-06 11:55:00,SystemResetWarning,0834.3,5.01,000.00,029.2,027.8,000.0,037.5,030.8,23.9,0002.2,0017.24,0024.52,0016.25
2023-09-06 11:56:00,SystemResetWarning,0834.2,5.00,000.00,029.2,027.8,000.0,037.5,030.8,23.9,0002.2,0017.27,0024.74,0016.31
2023-09-06 11:57:00,SystemResetWarning,0834.2,4.99,000.00,029.2,027.8,000.0,037.5,030.9,23.9,0002.2,0017.35,0024.88,0016.41
2023-09-06 11:58:00,SystemResetWarning,0834.2,5.00,000.00,029.2,027.8,000.0,037.5,030.8,23.9,0002.1,0017.39,0024.83,0016.50
2023-09-06 11:59:00,SystemResetWarning,0834.6,5.00,000.00,029.2,027.8,000.0,037.5,030.8,23.9,0001.9,0017.52,0024.52,0016.61
